[[{"header":{"parameterUnit":"m.s-1","parameterCategory":1,"la1":30.2991,"la2":30.254,"lo1":-89.0895,"lo2":-89.0444,"dy":0.0017,"dx":0.0017,"nx":28,"ny":28,"refTime":"2025-04-11T03:00:00:Z","depth":0,"parameterNumber":2,"parameterNumberName":"U-component_of_WINDS"},"data":[0,0,0,0,0,0,0,0,0,0,0,0,0,0,0,0,0,0,0,0,0,0,0,0,0,0,0,0,0,0,0,0,0,0,0,0,0,0,0,0,0,0,0,0,0,0,0,0,0,0,0,0,0,0,0,0,0,0,5.8391,5.8391,0,5.8405,5.8405,5.8405,5.8227,5.8222,5.8218,5.8213,5.823,5.8235,5.824,0,0,0,0,0,0,0,0,0,0,0,0,0,5.8214,5.8218,5.8391,5.8391,5.8392,5.8405,5.8405,5.8405,5.8228,5.8222,5.8216,5.8211,5.8229,5.8234,5.824,0,0,0,0,0,0,0,0,0,0,0,0,0,5.8266,5.822,5.8391,5.8305,5.8297,5.8405,5.8405,5.8405,5.8229,5.8222,5.8215,5.8208,5.8227,5.8234,5.8241,5.8433,0,0,5.8264,5.8267,0,0,0,0,0,0,0,0,5.8263,5.8273,5.8317,5.8311,5.8302,5.8307,5.8349,5.8415,5.8231,5.8255,5.8213,5.8204,5.8262,5.8266,5.8285,5.8434,5.8435,5.8265,5.8269,5.8272,5.8275,0,0,0,0,0,0,0,5.826,5.8271,5.8397,5.8318,5.8309,5.8266,5.8265,5.836,5.8299,5.8253,5.824,5.8244,5.8256,5.8278,5.8284,5.8435,5.8265,5.8271,5.8276,5.8279,5.8743,5.8751,0,0,0,0,0,0,5.8268,5.8269,5.8396,5.8397,5.8264,5.8275,5.8274,5.8313,5.8298,5.8288,5.825,5.8235,5.8269,5.8275,5.8284,5.8508,5.8272,5.8279,5.8284,5.8736,5.8745,5.8754,0,0,0,0,0,0,5.8264,5.8281,5.8396,5.833,5.8341,5.8286,5.8331,5.8317,5.8338,5.8296,5.8284,5.8283,5.8263,5.8273,5.8397,5.8506,5.8283,5.829,5.8726,5.8739,5.8749,5.8958,0,0,0,0,0,0,5.826,5.8281,5.8352,5.8333,5.8345,5.8509,5.8337,5.8323,5.8351,5.8332,5.8324,5.8315,5.8258,5.8387,5.8405,5.8512,5.8295,5.8716,5.8732,5.8746,5.8941,5.8976,5.9005,0,0,0,0,0,5.8254,5.8411,5.8357,5.8373,5.8434,5.8516,5.8523,5.8453,5.8361,5.8433,5.8406,5.8315,5.8491,5.8401,5.842,5.8531,5.8709,5.8727,5.8745,5.8927,5.8969,5.9004,0,0,0,0,0,0,5.8446,5.8407,5.8346,5.8501,5.8513,5.8485,5.8574,5.85,5.8539,5.852,5.8432,5.8432,5.8571,5.8563,5.8464,5.8716,5.8584,5.8606,5.8717,5.8756,5.8787,5.8786,5.8302,0,0,0,0,0,5.8506,5.8575,5.8537,5.8678,5.8687,5.863,5.8663,5.8609,5.8617,5.8622,5.8603,5.8617,5.8674,5.8714,5.8765,5.8939,5.8935,5.9025,5.9057,5.9083,5.9103,5.9195,5.9235,5.8812,5.8812,5.8811,0,0,5.8632,5.8619,5.8668,5.8716,5.8719,5.8793,5.8636,5.8721,5.8775,5.8635,5.8751,5.8738,5.8747,5.8897,5.8962,5.8895,5.9219,5.9105,5.9127,5.9133,5.9217,5.9258,5.9293,5.8824,5.8821,5.882,0,0,5.8898,5.8895,5.9012,5.9018,5.9023,5.8984,5.9013,5.8997,5.8983,5.9097,5.8994,5.9058,5.9159,5.917,5.9189,5.946,5.9378,5.9479,5.9645,5.9736,5.9769,5.9798,5.9895,5.9931,5.9499,5.95,5.95,0,5.9054,5.916,5.9081,5.9174,5.9198,5.9074,5.9192,5.9202,5.9225,5.9245,5.9169,5.9294,5.9291,5.9442,5.9508,5.9527,5.9557,5.9479,5.977,5.9799,5.9825,5.9917,5.9953,5.9512,5.951,5.9509,5.9508,0,5.9351,5.9427,5.9521,5.9545,5.958,5.9685,5.9623,5.9668,5.9611,5.9581,5.97,5.9692,5.9739,5.9771,5.9716,5.9915,5.9872,5.9785,5.965,5.9879,5.9963,5.9998,5.9529,5.9525,5.9521,5.9518,0,0,5.9739,5.9718,5.9754,5.9764,5.9761,5.9819,5.9918,5.9964,6.0004,6.0024,6.0106,6.0195,6.0114,6.0136,6.0081,6.016,6.0376,6.0062,6.0061,6.0122,6.0595,6.0662,6.0704,6.0322,6.0328,6.0333,6.0595,0,5.9999,6.0167,6.0099,6.0273,6.0343,6.0226,6.0312,6.0321,6.0295,6.0351,6.0322,6.0387,6.0275,6.0287,6.0361,6.0334,6.047,6.0314,6.0398,6.0402,6.04,6.0748,6.0818,6.1065,6.0627,6.0633,6.0637,0,6.0324,6.0357,6.0538,6.0523,6.055,6.0629,6.0665,6.072,6.0727,6.0703,6.0727,6.0655,6.0752,6.0618,6.0751,6.0647,6.0677,6.0669,6.0677,6.0683,6.0534,6.0763,6.1142,6.118,6.0688,6.0684,6.068,0,6.059,6.0679,6.0799,6.0811,6.0796,6.0855,6.0852,6.0851,6.0883,6.0915,6.0935,6.0979,6.1003,6.1039,6.098,6.0888,6.1123,6.0983,6.1106,6.1108,6.1161,6.1159,6.1551,6.1181,6.118,6.1179,6.1178,0,6.0887,6.1003,6.0918,6.0992,6.1118,6.104,6.1167,6.1151,6.1152,6.1222,6.1123,6.1191,6.1109,6.1169,6.1124,6.1241,6.1253,6.1237,6.1223,6.1246,6.1248,6.1265,6.1246,6.1189,6.1187,6.1185,6.1183,0,6.1205,6.1153,6.1276,6.1252,6.1249,6.1344,6.1323,6.1391,6.1358,6.1448,6.1464,6.1413,6.1479,6.1424,6.1487,6.1457,6.1613,6.1575,6.1611,6.1601,6.1727,6.1716,6.2144,6.2196,6.1792,6.1796,6.1799,0,6.1398,6.1485,6.147,6.1509,6.1512,6.1576,6.1608,6.1534,6.1571,6.1586,6.1653,6.1709,6.1751,6.1861,6.1831,6.1879,6.1842,6.1988,6.1848,6.1868,6.1844,6.184,6.1849,6.2017,6.2022,6.2026,6.2029,0,6.1747,6.1717,6.1766,6.1808,6.1848,6.1877,6.1898,6.1936,6.186,6.1907,6.1972,6.2004,6.2069,6.2127,6.2165,6.2162,6.2085,6.2073,6.2104,6.2128,6.2145,6.2138,6.1689,6.2064,6.206,6.2058,6.2056,6.2054,6.2009,6.208,6.2081,6.214,6.2148,6.217,6.2232,6.2207,6.226,6.2306,6.226,6.2339,6.2344,6.2387,6.2394,6.2456,6.2395,6.244,6.2451,6.2464,6.2482,6.2136,6.2462,6.2461,6.246,6.2459,6.2459,0,6.2353,6.2348,6.2403,6.2435,6.2481,6.2402,6.2421,6.2466,6.2536,6.2547,6.259,6.2666,6.2721,6.2695,6.2744,6.2799,6.2764,6.2814,6.2809,6.281,6.2533,6.2502,6.2841,6.2841,6.2841,6.2841,6.2841,6.2841,6.2538,6.2655,6.2625,6.2745,6.2738,6.2815,6.2833,6.2853,6.2861,6.295,6.2995,6.2977,6.2974,6.3022,6.307,6.306,6.3083,6.3147,6.3125,6.2867,6.283,6.2794,6.2764,6.3152,6.3153,6.3396,6.3399,6.34]},{"header":{"parameterUnit":"m.s-1","parameterCategory":1,"la1":30.2991,"la2":30.254,"lo1":-89.0895,"lo2":-89.0444,"dy":0.0017,"dx":0.0017,"nx":28,"ny":28,"refTime":"2025-04-11T03:00:00:Z","depth":0,"parameterNumber":3,"parameterNumberName":"V-component_of_WINDS"},"data":[0,0,0,0,0,0,0,0,0,0,0,0,0,0,0,0,0,0,0,0,0,0,0,0,0,0,0,0,0,0,0,0,0,0,0,0,0,0,0,0,0,0,0,0,0,0,0,0,0,0,0,0,0,0,0,0,0,0,1.2973,1.2975,0,1.3086,1.3088,1.3089,1.3124,1.3124,1.3123,1.3123,1.324,1.3244,1.3248,0,0,0,0,0,0,0,0,0,0,0,0,0,1.2789,1.2792,1.2973,1.2975,1.2976,1.3086,1.3088,1.3089,1.3125,1.3124,1.3123,1.3123,1.3239,1.3244,1.3248,0,0,0,0,0,0,0,0,0,0,0,0,0,1.2882,1.2793,1.2973,1.3007,1.3011,1.3086,1.3088,1.309,1.3125,1.3124,1.3123,1.3122,1.3238,1.3243,1.3248,1.3298,0,0,1.3265,1.3268,0,0,0,0,0,0,0,0,1.2877,1.2889,1.3001,1.3005,1.301,1.309,1.3066,1.316,1.3125,1.3082,1.3123,1.3122,1.3191,1.3201,1.3224,1.3304,1.3309,1.3266,1.3269,1.3271,1.3273,0,0,0,0,0,0,0,1.2871,1.2884,1.3018,1.3002,1.3008,1.3017,1.3029,1.3084,1.314,1.3085,1.3088,1.3101,1.3194,1.3218,1.3227,1.3311,1.3265,1.327,1.3274,1.3276,1.3437,1.3438,0,0,0,0,0,0,1.2858,1.2879,1.3015,1.3021,1.294,1.3021,1.3035,1.3065,1.3139,1.315,1.3102,1.3102,1.3209,1.322,1.3231,1.3294,1.3271,1.3276,1.3279,1.3436,1.3437,1.3438,0,0,0,0,0,0,1.2854,1.287,1.301,1.2951,1.297,1.3025,1.3059,1.3068,1.3093,1.3151,1.3162,1.3116,1.3209,1.3223,1.3281,1.3298,1.3279,1.3284,1.3435,1.3436,1.3438,1.342,0,0,0,0,0,0,1.2849,1.2868,1.2888,1.2951,1.2972,1.3058,1.306,1.3071,1.3102,1.3104,1.3168,1.3178,1.321,1.3273,1.3286,1.3306,1.3288,1.3433,1.3435,1.3437,1.3419,1.3421,1.3422,0,0,0,0,0,1.2842,1.2879,1.2888,1.2904,1.2998,1.3059,1.3071,1.3106,1.3103,1.3123,1.3161,1.3176,1.3294,1.3278,1.3294,1.3315,1.3432,1.3435,1.3437,1.3419,1.342,1.3422,0,0,0,0,0,0,1.2817,1.2888,1.2899,1.2957,1.3002,1.3065,1.3091,1.3107,1.3154,1.3154,1.3196,1.321,1.3265,1.3296,1.3277,1.3367,1.3364,1.3369,1.3345,1.3347,1.3348,1.334,1.3293,0,0,0,0,0,1.2817,1.2861,1.2921,1.2966,1.2988,1.3035,1.3063,1.3086,1.3134,1.3153,1.3195,1.3242,1.3289,1.332,1.3367,1.3424,1.3438,1.3446,1.3447,1.3448,1.3452,1.3485,1.3489,1.3446,1.3446,1.3446,0,0,1.282,1.2864,1.2889,1.2962,1.2999,1.3043,1.3051,1.3097,1.3131,1.3161,1.3218,1.325,1.3304,1.3362,1.3389,1.3389,1.3467,1.3451,1.3451,1.3455,1.3487,1.3491,1.3495,1.3447,1.3447,1.3447,0,0,1.2848,1.2886,1.2928,1.2964,1.302,1.3051,1.3061,1.3121,1.3144,1.3201,1.3225,1.3265,1.3346,1.3384,1.3413,1.3454,1.347,1.3468,1.3475,1.3506,1.3509,1.3513,1.3527,1.3532,1.3472,1.3472,1.3472,0,1.2845,1.2912,1.2947,1.2992,1.3024,1.3052,1.3094,1.3129,1.3197,1.3218,1.3217,1.3319,1.3357,1.3424,1.3434,1.3457,1.347,1.3461,1.3506,1.351,1.3513,1.3527,1.3533,1.3472,1.3472,1.3472,1.3472,0,1.2905,1.2951,1.2978,1.3042,1.3076,1.312,1.3163,1.3193,1.3213,1.3244,1.3302,1.335,1.3406,1.3424,1.3444,1.3493,1.3491,1.3498,1.3496,1.3516,1.353,1.3536,1.3471,1.3471,1.3471,1.3471,0,0,1.292,1.3003,1.3012,1.3041,1.3104,1.3141,1.3186,1.324,1.3266,1.3312,1.335,1.3418,1.3424,1.3457,1.3482,1.3509,1.3538,1.3512,1.3514,1.3515,1.3594,1.3589,1.3595,1.3548,1.355,1.355,1.359,0,1.2956,1.3037,1.3069,1.3135,1.3178,1.3205,1.3244,1.3287,1.3317,1.3358,1.3392,1.3439,1.3443,1.3463,1.3491,1.3528,1.3554,1.3526,1.3585,1.3587,1.3571,1.3602,1.3597,1.3632,1.3596,1.3596,1.3597,0,1.3009,1.3054,1.3123,1.318,1.3199,1.3234,1.3286,1.3325,1.3374,1.3394,1.3431,1.3454,1.3502,1.3497,1.3564,1.3543,1.357,1.3591,1.3594,1.3601,1.3593,1.361,1.3644,1.3649,1.3606,1.3606,1.3605,0,1.3013,1.3091,1.3142,1.3167,1.3235,1.3258,1.3287,1.3336,1.3366,1.3412,1.3433,1.3484,1.3512,1.3551,1.3587,1.358,1.3651,1.3648,1.3669,1.3668,1.3683,1.3682,1.3722,1.37,1.37,1.3699,1.3699,0,1.3049,1.309,1.3145,1.3177,1.3224,1.3261,1.3307,1.3338,1.3381,1.3419,1.3446,1.3482,1.3527,1.3569,1.3597,1.3648,1.3661,1.3678,1.3686,1.3676,1.3674,1.3694,1.3693,1.3701,1.3701,1.37,1.37,0,1.3062,1.31,1.3158,1.3217,1.3233,1.3265,1.3316,1.3347,1.3378,1.3427,1.344,1.3489,1.3539,1.3579,1.3645,1.3664,1.3718,1.3726,1.3701,1.3704,1.3723,1.3721,1.3777,1.3787,1.3758,1.3758,1.3759,0,1.3083,1.3115,1.3177,1.3204,1.3233,1.3277,1.3308,1.3346,1.3377,1.3435,1.346,1.3512,1.3555,1.3634,1.3676,1.3726,1.3735,1.3752,1.3743,1.3732,1.3735,1.3733,1.3736,1.3753,1.3753,1.3753,1.3753,0,1.3115,1.3132,1.3176,1.3225,1.3261,1.3303,1.3345,1.3366,1.3411,1.3445,1.3496,1.353,1.3596,1.3647,1.3701,1.3732,1.375,1.3755,1.3763,1.3753,1.3737,1.3746,1.3703,1.3754,1.3754,1.3754,1.3754,1.3754,1.3133,1.3162,1.321,1.3258,1.3293,1.3331,1.3364,1.3399,1.3442,1.3498,1.3518,1.357,1.3618,1.3693,1.3724,1.3766,1.3767,1.3778,1.3781,1.3783,1.3782,1.373,1.3776,1.3776,1.3776,1.3776,1.3776,0,1.3167,1.3199,1.3242,1.3299,1.3336,1.3349,1.3396,1.3426,1.3471,1.3514,1.3556,1.3614,1.3664,1.3709,1.3761,1.3785,1.3795,1.3798,1.3796,1.3803,1.3778,1.3766,1.3789,1.3789,1.3789,1.3789,1.3789,1.3789,1.3189,1.3239,1.3262,1.333,1.3362,1.3413,1.3439,1.3474,1.3509,1.3572,1.3613,1.3642,1.3686,1.3741,1.3787,1.3799,1.3816,1.3817,1.3831,1.3807,1.3805,1.3803,1.3792,1.3821,1.3821,1.3853,1.3853,1.3854]}]]